User: anonymous   Login
Location: Iola
(37.9240°N, 95.4000°W)
Time: 15:44:06
(UTC-05:00)
Language:

Meteor 2-10 Rocket - Orbit

View from above orbital plane
View from above orbital plane
View from above satellite
View from above satellite

Ground track
Ground track

The orbit data is extracted from the following two-line orbital elements,

1 14453U 83109B   15185.19324792  .00000104  00000-0  37518-4 0  9998
2 14453 081.1678 104.5502 0104542 329.7650 029.7521 14.24605106645869
Epoch (UTC): 04 July 2015 04:38:16
Eccentricity: 0.0104542
inclination: 81.1678°
perigee height: 734 km
apogee height: 885 km
right ascension of ascending node: 104.5502°
argument of perigee: 329.7650°
revolutions per day: 14.24605106
mean anomaly at epoch: 29.7521°
orbit number at epoch: 64586

The dashed part of the orbit path shows where the satellite is in the earth's shadow,  

DLR